N551MA KDAY-KMKE

Flight info

Callsign N551MA
Flight time 1h 16m
Altitude 24000
Route DAY8 FWA GETCH LYSTR SUDDS
Aircraft TBM8/L-VGDW/C

Departure

Time 2026-05-08 23:20
Airport James M. Cox Dayton International Airport (KDAY)

Arrival

Time 2026-05-09 00:37
Airport General Mitchell International Airport (KMKE)
Time Latitude Longitude Altitude Speed Heading
2026-05-08 22:59 39.90511 -84.20891 1005 ft 0 kts 313°
2026-05-08 23:16 39.90517 -84.20900 1005 ft 6 kts 304°
2026-05-08 23:16 39.90487 -84.20955 1006 ft 10 kts 210°
2026-05-08 23:16 39.90387 -84.20962 1006 ft 15 kts 181°
2026-05-08 23:17 39.90265 -84.20962 1007 ft 14 kts 179°
2026-05-08 23:17 39.90161 -84.20943 1007 ft 18 kts 120°
2026-05-08 23:17 39.90154 -84.20745 1005 ft 23 kts 89°
2026-05-08 23:17 39.90154 -84.20570 1002 ft 17 kts 89°
2026-05-08 23:18 39.90199 -84.20431 1000 ft 16 kts 58°
2026-05-08 23:18 39.90243 -84.20347 999 ft 8 kts 49°
2026-05-08 23:18 39.90268 -84.20302 998 ft 7 kts 59°
2026-05-08 23:18 39.90260 -84.20267 998 ft 0 kts 144°
2026-05-08 23:19 39.90257 -84.20265 998 ft 4 kts 147°
2026-05-08 23:19 39.90185 -84.20215 998 ft 12 kts 191°
2026-05-08 23:19 39.90170 -84.20234 998 ft 6 kts 234°
2026-05-08 23:19 39.90038 -84.20475 1000 ft 59 kts 237°
2026-05-08 23:20 39.89719 -84.21088 1046 ft 99 kts 234°
2026-05-08 23:20 39.89312 -84.21939 1253 ft 120 kts 237°
2026-05-08 23:20 39.88835 -84.22889 1599 ft 129 kts 236°
2026-05-08 23:20 39.88311 -84.23849 2046 ft 131 kts 235°
2026-05-08 23:21 39.87777 -84.24799 2524 ft 129 kts 241°
2026-05-08 23:21 39.87675 -84.25951 3008 ft 134 kts 286°
2026-05-08 23:21 39.88280 -84.26852 3623 ft 136 kts 318°
2026-05-08 23:21 39.89090 -84.27515 4135 ft 138 kts 316°
2026-05-08 23:22 39.89866 -84.28225 4633 ft 136 kts 310°
2026-05-08 23:22 39.90646 -84.28950 5136 ft 139 kts 313°
2026-05-08 23:22 39.91468 -84.29631 5641 ft 141 kts 314°
2026-05-08 23:22 39.92308 -84.30303 6134 ft 143 kts 314°
2026-05-08 23:23 39.93158 -84.30977 6635 ft 143 kts 314°
2026-05-08 23:23 39.94000 -84.31650 7114 ft 141 kts 314°
2026-05-08 23:23 39.94828 -84.32318 7620 ft 139 kts 314°
2026-05-08 23:23 39.95638 -84.32979 8113 ft 137 kts 313°
2026-05-08 23:24 39.96439 -84.33639 8603 ft 136 kts 313°
2026-05-08 23:24 39.97232 -84.34293 9108 ft 134 kts 313°
2026-05-08 23:24 39.98017 -84.34939 9616 ft 133 kts 313°
2026-05-08 23:24 39.98791 -84.35578 10077 ft 132 kts 313°
2026-05-08 23:25 39.99554 -84.36209 10506 ft 131 kts 313°
2026-05-08 23:25 40.00325 -84.36845 10938 ft 131 kts 313°
2026-05-08 23:25 40.01094 -84.37480 11375 ft 131 kts 314°
2026-05-08 23:25 40.01862 -84.38113 11807 ft 130 kts 314°
2026-05-08 23:26 40.02628 -84.38745 12227 ft 130 kts 314°
2026-05-08 23:26 40.03394 -84.39377 12656 ft 130 kts 314°
2026-05-08 23:26 40.04158 -84.40009 13078 ft 130 kts 314°
2026-05-08 23:26 40.04920 -84.40640 13508 ft 130 kts 314°
2026-05-08 23:27 40.05682 -84.41269 13910 ft 130 kts 314°
2026-05-08 23:27 40.06446 -84.41903 14271 ft 130 kts 314°
2026-05-08 23:27 40.07213 -84.42538 14635 ft 131 kts 314°
2026-05-08 23:27 40.07985 -84.43179 15005 ft 132 kts 314°
2026-05-08 23:28 40.08762 -84.43822 15363 ft 133 kts 314°
2026-05-08 23:28 40.09543 -84.44470 15717 ft 134 kts 314°
2026-05-08 23:28 40.10331 -84.45122 16074 ft 134 kts 314°
2026-05-08 23:28 40.11124 -84.45780 16432 ft 135 kts 314°
2026-05-08 23:29 40.11921 -84.46440 16790 ft 136 kts 314°
2026-05-08 23:29 40.12729 -84.47111 17138 ft 139 kts 314°
2026-05-08 23:29 40.13547 -84.47790 17487 ft 140 kts 314°
2026-05-08 23:29 40.14368 -84.48473 17839 ft 140 kts 314°
2026-05-08 23:30 40.15193 -84.49156 18189 ft 141 kts 314°
2026-05-08 23:30 40.16021 -84.49842 18492 ft 141 kts 314°
2026-05-08 23:30 40.16849 -84.50529 18794 ft 141 kts 314°
2026-05-08 23:30 40.17679 -84.51219 19095 ft 142 kts 313°
2026-05-08 23:31 40.18513 -84.51912 19392 ft 142 kts 313°
2026-05-08 23:31 40.19352 -84.52607 19685 ft 143 kts 313°
2026-05-08 23:31 40.20192 -84.53305 19980 ft 143 kts 313°
2026-05-08 23:31 40.21037 -84.54006 20266 ft 144 kts 312°
2026-05-08 23:32 40.21883 -84.54710 20571 ft 144 kts 312°
2026-05-08 23:32 40.22732 -84.55415 20860 ft 145 kts 311°
2026-05-08 23:32 40.23583 -84.56123 21146 ft 145 kts 311°
2026-05-08 23:32 40.24438 -84.56834 21433 ft 146 kts 311°
2026-05-08 23:33 40.25293 -84.57547 21714 ft 146 kts 311°
2026-05-08 23:33 40.26153 -84.58263 21999 ft 147 kts 310°
2026-05-08 23:33 40.27014 -84.58982 22278 ft 147 kts 310°
2026-05-08 23:33 40.27879 -84.59704 22546 ft 148 kts 310°
2026-05-08 23:34 40.28747 -84.60427 22816 ft 148 kts 310°
2026-05-08 23:34 40.29620 -84.61155 23052 ft 150 kts 310°
2026-05-08 23:34 40.30510 -84.61900 23274 ft 153 kts 310°
2026-05-08 23:34 40.31414 -84.62664 23497 ft 156 kts 310°
2026-05-08 23:35 40.32338 -84.63447 23645 ft 161 kts 310°
2026-05-08 23:35 40.33300 -84.64263 23766 ft 168 kts 311°
2026-05-08 23:35 40.34305 -84.65110 23879 ft 176 kts 311°
2026-05-08 23:35 40.35365 -84.66008 23923 ft 187 kts 312°
2026-05-08 23:36 40.36497 -84.66965 23919 ft 200 kts 313°
2026-05-08 23:36 40.37698 -84.67977 23920 ft 211 kts 313°
2026-05-08 23:36 40.38963 -84.69038 23919 ft 221 kts 314°
2026-05-08 23:36 40.40281 -84.70140 23904 ft 229 kts 314°
2026-05-08 23:37 40.41649 -84.71281 23901 ft 237 kts 315°
2026-05-08 23:37 40.43054 -84.72454 23901 ft 243 kts 315°
2026-05-08 23:37 40.44500 -84.73658 23900 ft 248 kts 315°
2026-05-08 23:37 40.45973 -84.74886 23896 ft 253 kts 316°
2026-05-08 23:38 40.47469 -84.76134 23897 ft 257 kts 316°
2026-05-08 23:38 40.48963 -84.77382 23893 ft 260 kts 316°
2026-05-08 23:38 40.50498 -84.78666 23890 ft 262 kts 316°
2026-05-08 23:38 40.52043 -84.79959 23890 ft 264 kts 316°
2026-05-08 23:39 40.53599 -84.81263 23886 ft 266 kts 316°
2026-05-08 23:39 40.55163 -84.82575 23885 ft 267 kts 316°
2026-05-08 23:39 40.56731 -84.83891 23884 ft 268 kts 316°
2026-05-08 23:39 40.58309 -84.85218 23884 ft 269 kts 316°
2026-05-08 23:40 40.59887 -84.86547 23884 ft 270 kts 316°
2026-05-08 23:40 40.61472 -84.87883 23885 ft 271 kts 316°
2026-05-08 23:40 40.63078 -84.89238 23885 ft 271 kts 316°
2026-05-08 23:40 40.64647 -84.90562 23886 ft 272 kts 316°
2026-05-08 23:41 40.66238 -84.91906 23885 ft 272 kts 316°
2026-05-08 23:41 40.67831 -84.93254 23884 ft 272 kts 316°
2026-05-08 23:41 40.69424 -84.94603 23883 ft 272 kts 316°
2026-05-08 23:41 40.71020 -84.95954 23881 ft 273 kts 316°
2026-05-08 23:42 40.72617 -84.97307 23877 ft 273 kts 316°
2026-05-08 23:42 40.74213 -84.98660 23876 ft 273 kts 316°
2026-05-08 23:42 40.75808 -85.00014 23876 ft 273 kts 316°
2026-05-08 23:42 40.77405 -85.01368 23876 ft 273 kts 316°
2026-05-08 23:43 40.78999 -85.02723 23877 ft 273 kts 316°
2026-05-08 23:43 40.80596 -85.04080 23898 ft 273 kts 316°
2026-05-08 23:43 40.82194 -85.05439 23888 ft 273 kts 316°
2026-05-08 23:43 40.83793 -85.06800 23882 ft 274 kts 316°
2026-05-08 23:44 40.85394 -85.08165 23882 ft 274 kts 316°
2026-05-08 23:44 40.86994 -85.09528 23877 ft 274 kts 316°
2026-05-08 23:44 40.88595 -85.10893 23878 ft 274 kts 316°
2026-05-08 23:44 40.90198 -85.12260 23876 ft 274 kts 316°
2026-05-08 23:45 40.91799 -85.13625 23878 ft 274 kts 316°
2026-05-08 23:45 40.93399 -85.14991 23877 ft 274 kts 316°
2026-05-08 23:45 40.95000 -85.16359 23881 ft 274 kts 316°
2026-05-08 23:45 40.96607 -85.17722 23881 ft 275 kts 317°
2026-05-08 23:46 40.98332 -85.18896 23884 ft 284 kts 325°
2026-05-08 23:46 41.00262 -85.19682 23883 ft 295 kts 334°
2026-05-08 23:46 41.02234 -85.20372 23878 ft 292 kts 332°
2026-05-08 23:46 41.04153 -85.21110 23894 ft 290 kts 331°
2026-05-08 23:47 41.06083 -85.21866 23885 ft 288 kts 331°
2026-05-08 23:47 41.07994 -85.22616 23874 ft 286 kts 331°
2026-05-08 23:47 41.09897 -85.23358 23871 ft 284 kts 331°
2026-05-08 23:47 41.11789 -85.24093 23870 ft 283 kts 331°
2026-05-08 23:48 41.13675 -85.24822 23872 ft 282 kts 331°
2026-05-08 23:48 41.15558 -85.25548 23869 ft 281 kts 331°
2026-05-08 23:48 41.17432 -85.26269 23867 ft 280 kts 331°
2026-05-08 23:48 41.19305 -85.26989 23866 ft 280 kts 331°
2026-05-08 23:49 41.21171 -85.27706 23865 ft 279 kts 331°
2026-05-08 23:49 41.23026 -85.28445 23867 ft 275 kts 327°
2026-05-08 23:49 41.24699 -85.29535 23869 ft 263 kts 317°
2026-05-08 23:49 41.26210 -85.30866 23881 ft 259 kts 314°
2026-05-08 23:50 41.27673 -85.32253 23865 ft 258 kts 314°
2026-05-08 23:50 41.29133 -85.33640 23858 ft 258 kts 314°
2026-05-08 23:50 41.30600 -85.35007 23851 ft 257 kts 314°
2026-05-08 23:50 41.32076 -85.36355 23848 ft 257 kts 315°
2026-05-08 23:51 41.33558 -85.37688 23846 ft 257 kts 315°
2026-05-08 23:51 41.35043 -85.39010 23850 ft 257 kts 315°
2026-05-08 23:51 41.36029 -85.39883 23854 ft 257 kts 315°
2026-05-08 23:51 41.37518 -85.41197 23854 ft 257 kts 315°
2026-05-08 23:52 41.39009 -85.42511 23854 ft 257 kts 315°
2026-05-08 23:52 41.40500 -85.43826 23847 ft 257 kts 315°
2026-05-08 23:52 41.41992 -85.45139 23845 ft 257 kts 315°
2026-05-08 23:52 41.43485 -85.46455 23839 ft 257 kts 315°
2026-05-08 23:53 41.44979 -85.47772 23839 ft 257 kts 315°
2026-05-08 23:53 41.46473 -85.49090 23842 ft 257 kts 315°
2026-05-08 23:53 41.47967 -85.50408 23868 ft 258 kts 316°
2026-05-08 23:53 41.49465 -85.51732 23856 ft 259 kts 316°
2026-05-08 23:54 41.50968 -85.53060 23849 ft 259 kts 316°
2026-05-08 23:54 41.52472 -85.54390 23848 ft 260 kts 316°
2026-05-08 23:54 41.53978 -85.55720 23848 ft 260 kts 316°
2026-05-08 23:55 41.56994 -85.58398 23840 ft 261 kts 315°
2026-05-08 23:55 41.58510 -85.59748 23838 ft 262 kts 316°
2026-05-08 23:55 41.60034 -85.61100 23839 ft 263 kts 316°
2026-05-08 23:55 41.61562 -85.62454 23840 ft 264 kts 316°
2026-05-08 23:56 41.63098 -85.63814 23838 ft 265 kts 316°
2026-05-08 23:56 41.64633 -85.65175 23836 ft 265 kts 316°
2026-05-08 23:56 41.66173 -85.66540 23836 ft 266 kts 316°
2026-05-08 23:56 41.67713 -85.67906 23840 ft 266 kts 316°
2026-05-08 23:57 41.69254 -85.69276 23838 ft 266 kts 316°
2026-05-08 23:57 41.70798 -85.70650 23857 ft 267 kts 316°
2026-05-08 23:57 41.72342 -85.72025 23848 ft 267 kts 316°
2026-05-08 23:57 41.73888 -85.73402 23836 ft 267 kts 316°
2026-05-08 23:58 41.75432 -85.74777 23840 ft 267 kts 316°
2026-05-08 23:58 41.76977 -85.76154 23838 ft 267 kts 316°
2026-05-08 23:58 41.78523 -85.77532 23831 ft 267 kts 316°
2026-05-08 23:58 41.80068 -85.78912 23826 ft 267 kts 316°
2026-05-08 23:59 41.81610 -85.80291 23820 ft 266 kts 316°
2026-05-08 23:59 41.83131 -85.81650 23823 ft 266 kts 316°
2026-05-08 23:59 41.84671 -85.83027 23823 ft 266 kts 316°
2026-05-08 23:59 41.86207 -85.84402 23826 ft 266 kts 316°
2026-05-09 00:00 41.87744 -85.85768 23822 ft 264 kts 316°
2026-05-09 00:00 41.89271 -85.87130 23833 ft 263 kts 316°
2026-05-09 00:00 41.90790 -85.88491 23825 ft 262 kts 316°
2026-05-09 00:00 41.92301 -85.89849 23849 ft 261 kts 316°
2026-05-09 00:01 41.93807 -85.91205 23840 ft 260 kts 316°
2026-05-09 00:01 41.95330 -85.92574 23831 ft 260 kts 316°
2026-05-09 00:01 41.96827 -85.93922 23827 ft 259 kts 316°
2026-05-09 00:01 41.98300 -85.95250 23826 ft 258 kts 316°
2026-05-09 00:02 41.99789 -85.96591 23830 ft 258 kts 316°
2026-05-09 00:02 42.01275 -85.97931 23829 ft 257 kts 316°
2026-05-09 00:02 42.02761 -85.99272 23830 ft 257 kts 316°
2026-05-09 00:02 42.04244 -86.00611 23830 ft 257 kts 316°
2026-05-09 00:03 42.05727 -86.01949 23831 ft 256 kts 316°
2026-05-09 00:03 42.07206 -86.03285 23832 ft 256 kts 316°
2026-05-09 00:03 42.08689 -86.04624 23830 ft 256 kts 316°
2026-05-09 00:03 42.10168 -86.05961 23830 ft 256 kts 316°
2026-05-09 00:04 42.11645 -86.07297 23828 ft 256 kts 316°
2026-05-09 00:04 42.13123 -86.08634 23857 ft 256 kts 316°
2026-05-09 00:04 42.14602 -86.09973 23844 ft 256 kts 316°
2026-05-09 00:04 42.16083 -86.11316 23834 ft 257 kts 316°
2026-05-09 00:05 42.17567 -86.12663 23831 ft 257 kts 316°
2026-05-09 00:05 42.19050 -86.14006 23833 ft 257 kts 316°
2026-05-09 00:05 42.20535 -86.15353 23831 ft 257 kts 316°
2026-05-09 00:05 42.22018 -86.16700 23832 ft 257 kts 316°
2026-05-09 00:06 42.23501 -86.18047 23831 ft 257 kts 316°
2026-05-09 00:06 42.24986 -86.19396 23827 ft 257 kts 316°
2026-05-09 00:06 42.26470 -86.20745 23829 ft 257 kts 316°
2026-05-09 00:06 42.27954 -86.22096 23785 ft 259 kts 316°
2026-05-09 00:07 42.29467 -86.23482 23559 ft 267 kts 317°
2026-05-09 00:07 42.31017 -86.24902 23367 ft 271 kts 317°
2026-05-09 00:07 42.32589 -86.26337 23143 ft 274 kts 317°
2026-05-09 00:07 42.34182 -86.27787 22928 ft 277 kts 318°
2026-05-09 00:08 42.35786 -86.29246 22736 ft 279 kts 318°
2026-05-09 00:08 42.37404 -86.30718 22519 ft 281 kts 318°
2026-05-09 00:08 42.39029 -86.32198 22265 ft 283 kts 318°
2026-05-09 00:08 42.40669 -86.33695 21995 ft 285 kts 318°
2026-05-09 00:09 42.42319 -86.35201 21731 ft 287 kts 319°
2026-05-09 00:09 42.43978 -86.36714 21464 ft 288 kts 319°
2026-05-09 00:09 42.45638 -86.38230 21206 ft 288 kts 319°
2026-05-09 00:09 42.47300 -86.39748 20945 ft 288 kts 319°
2026-05-09 00:10 42.48958 -86.41265 20691 ft 288 kts 319°
2026-05-09 00:10 42.50615 -86.42785 20433 ft 287 kts 319°
2026-05-09 00:10 42.52269 -86.44304 20185 ft 287 kts 319°
2026-05-09 00:10 42.53924 -86.45826 19934 ft 287 kts 320°
2026-05-09 00:11 42.55578 -86.47348 19688 ft 287 kts 320°
2026-05-09 00:11 42.57230 -86.48868 19470 ft 287 kts 320°
2026-05-09 00:11 42.58881 -86.50378 19226 ft 285 kts 320°
2026-05-09 00:11 42.60520 -86.51881 18985 ft 284 kts 320°
2026-05-09 00:12 42.62153 -86.53382 18742 ft 283 kts 321°
2026-05-09 00:12 42.63777 -86.54880 18502 ft 281 kts 321°
2026-05-09 00:12 42.65388 -86.56353 18263 ft 276 kts 321°
2026-05-09 00:12 42.66970 -86.57790 17998 ft 271 kts 321°
2026-05-09 00:13 42.68521 -86.59214 17719 ft 267 kts 321°
2026-05-09 00:13 42.70049 -86.60635 17446 ft 265 kts 321°
2026-05-09 00:13 42.71565 -86.62052 17168 ft 264 kts 321°
2026-05-09 00:13 42.73080 -86.63479 16895 ft 266 kts 320°
2026-05-09 00:14 42.74605 -86.64913 16637 ft 268 kts 321°
2026-05-09 00:14 42.76146 -86.66346 16374 ft 268 kts 321°
2026-05-09 00:14 42.77690 -86.67779 16117 ft 269 kts 321°
2026-05-09 00:14 42.79235 -86.69210 15859 ft 269 kts 321°
2026-05-09 00:15 42.80777 -86.70638 15600 ft 268 kts 321°
2026-05-09 00:15 42.82317 -86.72067 15343 ft 267 kts 321°
2026-05-09 00:15 42.83859 -86.73499 14956 ft 271 kts 321°
2026-05-09 00:15 42.85429 -86.74970 14465 ft 276 kts 321°
2026-05-09 00:16 42.87008 -86.76425 13979 ft 273 kts 322°
2026-05-09 00:16 42.88578 -86.77855 13485 ft 270 kts 322°
2026-05-09 00:16 42.90124 -86.79284 12940 ft 268 kts 322°
2026-05-09 00:16 42.91644 -86.80686 12407 ft 259 kts 322°
2026-05-09 00:17 42.93116 -86.82041 11882 ft 253 kts 321°
2026-05-09 00:17 42.94567 -86.83420 11368 ft 256 kts 321°
2026-05-09 00:17 42.96019 -86.84806 11095 ft 250 kts 321°
2026-05-09 00:17 42.97425 -86.86149 11075 ft 244 kts 320°
2026-05-09 00:18 42.98808 -86.87467 11073 ft 240 kts 321°
2026-05-09 00:18 43.00153 -86.88736 11063 ft 237 kts 321°
2026-05-09 00:18 43.01505 -86.90006 11059 ft 235 kts 321°
2026-05-09 00:18 43.02845 -86.91264 11058 ft 233 kts 321°
2026-05-09 00:19 43.04181 -86.92518 11057 ft 232 kts 321°
2026-05-09 00:19 43.05512 -86.93768 11056 ft 232 kts 321°
2026-05-09 00:19 43.06838 -86.95016 11050 ft 231 kts 321°
2026-05-09 00:19 43.08158 -86.96264 11051 ft 230 kts 321°
2026-05-09 00:20 43.09478 -86.97502 11050 ft 230 kts 321°
2026-05-09 00:20 43.10794 -86.98737 11049 ft 230 kts 321°
2026-05-09 00:20 43.12110 -86.99974 11051 ft 229 kts 321°
2026-05-09 00:20 43.13419 -87.01224 11052 ft 229 kts 319°
2026-05-09 00:21 43.14492 -87.02789 11052 ft 225 kts 301°
2026-05-09 00:21 43.15106 -87.04736 11051 ft 223 kts 283°
2026-05-09 00:21 43.15225 -87.06853 11052 ft 224 kts 270°
2026-05-09 00:21 43.15149 -87.08982 11052 ft 224 kts 268°
2026-05-09 00:22 43.15058 -87.11112 11047 ft 224 kts 268°
2026-05-09 00:22 43.14971 -87.13241 11044 ft 224 kts 268°
2026-05-09 00:22 43.14895 -87.15370 11044 ft 224 kts 269°
2026-05-09 00:22 43.14827 -87.17499 11045 ft 224 kts 269°
2026-05-09 00:23 43.14766 -87.19628 11046 ft 224 kts 269°
2026-05-09 00:23 43.14710 -87.21758 11045 ft 224 kts 269°
2026-05-09 00:23 43.14655 -87.23888 11045 ft 224 kts 269°
2026-05-09 00:23 43.14603 -87.26017 11043 ft 224 kts 269°
2026-05-09 00:24 43.14555 -87.28148 11043 ft 224 kts 270°
2026-05-09 00:24 43.14505 -87.30276 11042 ft 224 kts 269°
2026-05-09 00:24 43.14454 -87.32406 11041 ft 224 kts 269°
2026-05-09 00:24 43.14400 -87.34534 11036 ft 224 kts 270°
2026-05-09 00:25 43.14200 -87.36651 11040 ft 226 kts 258°
2026-05-09 00:25 43.13623 -87.38667 11037 ft 226 kts 255°
2026-05-09 00:25 43.13493 -87.40793 10795 ft 231 kts 272°
2026-05-09 00:25 43.13554 -87.43063 10305 ft 244 kts 274°
2026-05-09 00:26 43.13664 -87.45386 9824 ft 251 kts 274°
2026-05-09 00:26 43.13812 -87.47753 9302 ft 247 kts 275°
2026-05-09 00:26 43.13973 -87.50071 8772 ft 243 kts 275°
2026-05-09 00:26 43.14141 -87.52343 8248 ft 235 kts 276°
2026-05-09 00:27 43.14320 -87.54447 7726 ft 209 kts 276°
2026-05-09 00:27 43.14482 -87.56406 7199 ft 207 kts 275°
2026-05-09 00:27 43.14641 -87.58384 6693 ft 210 kts 275°
2026-05-09 00:27 43.14809 -87.60383 6198 ft 211 kts 275°
2026-05-09 00:28 43.14981 -87.62381 5676 ft 211 kts 275°
2026-05-09 00:28 43.15154 -87.64375 5159 ft 211 kts 275°
2026-05-09 00:28 43.15330 -87.66361 4654 ft 210 kts 275°
2026-05-09 00:28 43.15508 -87.68364 4140 ft 218 kts 275°
2026-05-09 00:29 43.15692 -87.70495 3640 ft 231 kts 275°
2026-05-09 00:29 43.15896 -87.72696 3296 ft 232 kts 275°
2026-05-09 00:29 43.16114 -87.74848 3144 ft 220 kts 276°
2026-05-09 00:29 43.16332 -87.76853 3078 ft 207 kts 276°
2026-05-09 00:30 43.16545 -87.78756 3052 ft 199 kts 276°
2026-05-09 00:30 43.16752 -87.80626 3022 ft 195 kts 276°
2026-05-09 00:30 43.16595 -87.82328 3006 ft 176 kts 236°
2026-05-09 00:30 43.15708 -87.83403 3016 ft 167 kts 218°
2026-05-09 00:31 43.14780 -87.84336 3014 ft 165 kts 217°
2026-05-09 00:31 43.13849 -87.85239 3024 ft 164 kts 217°
2026-05-09 00:31 43.12904 -87.86094 3011 ft 162 kts 207°
2026-05-09 00:31 43.11853 -87.86505 3028 ft 151 kts 197°
2026-05-09 00:32 43.10842 -87.86756 3016 ft 145 kts 192°
2026-05-09 00:32 43.09846 -87.86920 3007 ft 144 kts 191°
2026-05-09 00:32 43.08854 -87.87059 3003 ft 143 kts 190°
2026-05-09 00:32 43.07867 -87.87231 2961 ft 143 kts 192°
2026-05-09 00:33 43.06880 -87.87383 2950 ft 144 kts 191°
2026-05-09 00:33 43.05900 -87.87555 2723 ft 137 kts 191°
2026-05-09 00:33 43.05004 -87.87717 2553 ft 124 kts 191°
2026-05-09 00:33 43.04170 -87.87855 2389 ft 119 kts 190°
2026-05-09 00:34 43.03320 -87.88000 2230 ft 128 kts 191°
2026-05-09 00:34 43.02420 -87.88162 2060 ft 132 kts 189°
2026-05-09 00:34 43.01505 -87.88331 1876 ft 130 kts 189°
2026-05-09 00:34 43.00679 -87.88470 1711 ft 110 kts 188°
2026-05-09 00:35 43.00016 -87.88580 1585 ft 89 kts 181°
2026-05-09 00:35 42.99411 -87.88707 1425 ft 88 kts 187°
2026-05-09 00:35 42.98817 -87.88819 1280 ft 84 kts 178°
2026-05-09 00:35 42.98212 -87.88900 1152 ft 91 kts 179°
2026-05-09 00:36 42.97580 -87.89002 1126 ft 91 kts 180°
2026-05-09 00:36 42.96966 -87.89106 1046 ft 83 kts 184°
2026-05-09 00:36 42.96429 -87.89197 889 ft 78 kts 182°
2026-05-09 00:36 42.95897 -87.89285 761 ft 75 kts 180°
2026-05-09 00:37 42.95413 -87.89371 676 ft 63 kts 182°
2026-05-09 00:37 42.95108 -87.89414 671 ft 30 kts 189°
2026-05-09 00:37 42.94978 -87.89476 671 ft 13 kts 243°
2026-05-09 00:37 42.94981 -87.89565 671 ft 0 kts 315°
2026-05-09 00:38 42.94984 -87.89568 671 ft 3 kts 324°
2026-05-09 00:39 42.95057 -87.89573 672 ft 18 kts
2026-05-09 00:39 42.95179 -87.89552 671 ft 20 kts
2026-05-09 00:39 42.95325 -87.89527 672 ft 22 kts
2026-05-09 00:39 42.95487 -87.89500 672 ft 22 kts
2026-05-09 00:40 42.95611 -87.89521 672 ft 17 kts 317°
2026-05-09 00:40 42.95737 -87.89570 672 ft 20 kts 326°
2026-05-09 00:40 42.95774 -87.89648 673 ft 8 kts 288°
2026-05-09 00:41 42.95825 -87.89677 673 ft 0 kts 358°